Regional Weather Roundup
Issued by NWS

Home | Current Version | Previous Version | Text Only | Print | Product List | Glossary Off
Versions: 1 2 3 4 5 6 7 8 9 10 11 12 13 14 15 16 17 18 19 20 21 22 23 24 25 26 27 28 29 30 31 32 33 34 35 36 37 38 39 40 41 42 43 44 45 46 47 48 49 50

000
ASUS43 KMKX 171000
RWRWI

WISCONSIN REGIONAL WEATHER ROUNDUP
NATIONAL WEATHER SERVICE MILWAUKEE/SULLIVAN WI
500 AM CDT THU AUG 17 2017

NOTE: "FAIR" INDICATES FEW OR NO CLOUDS BELOW 12,000 FEET WITH NO
SIGNIFICANT WEATHER AND/OR OBSTRUCTIONS TO VISIBILITY.

WIZ001-002-006>008-014>016-023>028-171100-
NORTHWEST WISCONSIN

CITY           SKY/WX    TMP DP  RH WIND       PRES   REMARKS
SUPERIOR ARPT  LGT RAIN  61  61  99 NE15G24   29.63F
ASHLAND        CLOUDY    62  61  96 NE9       29.66S
HAYWARD        CLOUDY    65  62  90 E8        29.61F
SIREN          RAIN      65  64  96 E6        29.56F
CUMBERLAND     LGT RAIN  64  64 100 SE12G23   29.57F
RICE LAKE      CLOUDY    67  66  95 SE7       29.59S
CHETEK         LGT RAIN  67  67 100 S7        29.58S
LADYSMITH      CLOUDY    66  65  97 E10       29.62F
EAU CLAIRE     NOT AVBL
MENOMONIE      CLOUDY    68  65  93 SE8       29.57F
NEW RICHMOND   CLOUDY    66  65  95 SE5       29.54F
OSCEOLA        CLOUDY    66  66 100 SE7       29.56S
$$

WIZ003>005-009-010-017-018-171100-
NORTH CENTRAL WISCONSIN

CITY           SKY/WX    TMP DP  RH WIND       PRES   REMARKS
MANITOWISH WTR DRIZZLE   61  61 100 E5        29.70S
ARBOR VITAE    LGT RAIN  63  61  95 SE6       29.69F
WOODRUFF       LGT RAIN  63  61  95 SE6       29.69F
RHINELANDER    CLOUDY    63  63 100 SE7       29.68F FOG
EAGLE RIVER    LGT RAIN  63  63 100 SE8       29.69F
LAND O LAKES   LGT RAIN  64  63  98 SE9       29.71F
PHILLIPS       CLOUDY    63  63 100 E7        29.63F
TOMAHAWK       DRIZZLE   62  61  96 SE3       29.67F
MEDFORD        CLOUDY    64  64  99 E6        29.64F FOG
MERRILL        NOT AVBL
$$

WIZ029-030-035-036-043>047-171100-
CENTRAL WISCONSIN

CITY           SKY/WX    TMP DP  RH WIND       PRES   REMARKS
WAUSAU         FOG       65  65 100 E7        29.64F VSB 3/4
MOSINEE        FOG       64  64 100 E3        29.67F VSB 1/2
MARSHFIELD     CLOUDY    69  67  93 S7        29.63F FOG
STEVENS POINT  CLOUDY    67  67 100 CALM      29.66F FOG
WAUPACA        CLOUDY    72  71  98 SE3       29.68F FOG
WAUTOMA        NOT AVBL
WISC RAPIDS    MOCLDY    71  70  96 S6        29.65F FOG
CAMP DOUGLAS   CLOUDY    72  70  95 S8        29.63F
$$

WIZ011>013-019>022-031-037>040-048>050-171100-
NORTHEAST WISCONSIN

CITY           SKY/WX    TMP DP  RH WIND       PRES   REMARKS
ANTIGO         CLOUDY    64  64 100 SE8       29.70F FOG
SHAWANO        CLOUDY    70  68  93 S5        29.67F FOG
OCONTO         CLOUDY    70  69  96 S10G18    29.69F
STURGEON BAY   NOT AVBL
GREEN BAY      CLOUDY    72  72 100 S7        29.68F
MANITOWOC      NOT AVBL
APPLETON       CLOUDY    70  70 100 S7        29.67F FOG
CLINTONVILLE   CLOUDY    68  68 100 SE5       29.66F FOG
OSHKOSH        NOT AVBL
$$

WIZ032>034-041-042-053>061-171100-
SOUTHWEST WISCONSIN

CITY           SKY/WX    TMP DP  RH WIND       PRES   REMARKS
LA CROSSE      MOCLDY    71  65  81 S10       29.61F
SPARTA         PTCLDY    68  66  92 SW3       29.64F
VIROQUA        PTCLDY    67  66  98 S7        29.66F
BOSCOBEL       NOT AVBL
PRAIRIE DU CHI CLEAR     69  64  85 S6        29.67F
PLATTEVILLE    CLOUDY    72  72 100 SW8       29.71F
$$

WIZ056-057-062-063-064-067-068-171100-
SOUTH CENTRAL WISCONSIN

CITY           SKY/WX    TMP DP  RH WIND       PRES   REMARKS
REEDSBURG      CLOUDY    71  71 100 SW7       29.67S
BARABOO/DELLS  CLOUDY    72  69  90 SW9       29.67F
LONE ROCK      NOT AVBL
MINERAL POINT  MOCLDY    72  72 100 SW8       29.71F
MADISON        NOT AVBL
MIDDLETON      CLOUDY    74  74  99 SW6       29.70F
WATERTOWN      CLOUDY    73  73 100 S12       29.70F
MONROE         CLOUDY    70  70 100 S9        29.73S
JANESVILLE     DRIZZLE   72  72 100 S9        29.73S
$$

WIZ051-052-058>065-066-070>072-171100-
SOUTHEAST WISCONSIN

CITY           SKY/WX    TMP DP  RH WIND       PRES   REMARKS
MILWAUKEE      NOT AVBL
WAUKESHA       CLOUDY    70  68  94 S5        29.74F
MILWAUKEE/TIMM CLOUDY    72  68  88 S8        29.73F
RACINE         NOT AVBL
KENOSHA        NOT AVBL
FOND DU LAC    NOT AVBL
SHEBOYGAN      NOT AVBL
WEST BEND      CLOUDY    72  72 100 S6        29.71F
JUNEAU         DRIZZLE   72  71  96 S8        29.71F
$$

LSZ147-162-171100-
LAKE SUPERIOR

STATION/POSITION TIME  TEMP    WIND        PRES    WAVE
                       AIR SEA DIR/SP/G            HT/PER
                 (UTC) (F)     (DEG/KT/KT) (MB)    (FT/S)
W MID LAKE BUOY  0850   62 60   40/ 14/ 16 1006.7F   2/ 4
DEVILS ISLAND    0900   61      60/ 26/ 30 1004.9F
SAXON HARBOR     0940   63      60/ 12/ 13 1003.7F
$$

LMZ867-665-643>646-171100-
LAKE MICHIGAN

STATION/POSITION TIME  TEMP    WIND        PRES    WAVE
                       AIR SEA DIR/SP/G            HT/PER
                 (UTC) (F)     (DEG/KT/KT) (MB)    (FT/S)
S GREEN BAY BUOY 0930   71 71  160/ 17/ 21 1005.2F
N MID LAKE BUOY  0850   69 68  140/ 16/ 17 1008.5F   2/ 4
NORTHPORT PIER   0940   69     140/ 20/ 26 1006.1F
KEWAUNEE LAKESHO 0930   71     160/ 15/ 18 1005.4F
SHEBOYGAN LAKESH 0900   71     180/ 10/ 11 1005.8F
PORT WASHINGTON  0930   73     190/  6/ 10 1007.1S
ATWATER BUOY     0809   73 71  180/ 10/ 14 1007.4F
MILWAUKEE LAKESH 0940   75     210/ 10/ 12   N/A
S MID LAKE BUOY  0850   74 71  180/ 14/ 16 1007.7F   2/ 4
KENOSHA   LAKESH 0900   74     190/  8/ 12 1007.1
$$

TC  - TEMPERATURE IN CELSIUS
VSB - VISIBILITY IN STATUTE MILES
WCI - WIND CHILL INDEX
HX  - HEAT INDEX





USA.gov is the U.S. government's official web portal to all federal, state and local government web resources and services.